Regional Weather Roundup
Issued by NWS State College, PA

Home | Current Version | Previous Version | Text Only | Print | Product List | Glossary On
Versions: 1 2 3 4 5 6 7 8 9 10 11 12 13 14 15 16 17 18 19 20 21 22 23 24 25 26 27 28 29 30 31 32 33 34 35 36 37 38 39 40 41 42 43 44 45 46 47 48 49 50
000
ASUS41 KCTP 240410
RWRCTP

REGIONAL WEATHER ROUNDUP
NATIONAL WEATHER SERVICE STATE COLLEGE PA
1200 AM EDT THU APR 24 2014

Note: "fair" indicates few or no clouds below 12,000 feet with no
significant weather and/or obstructions to visibility.

* = STATION THAT DOES NOT REPORT PRECIPITATION /E.G. RAIN...SNOW...ETC/
    THUNDER OR FOG.

PAZ002>004-007>009-013>016-020>023-029>032-240500-
WESTERN PENNSYLVANIA

CITY           SKY/WX    TMP DP  RH WIND       PRES   REMARKS
ERIE           CLEAR     38  27  64 W8        30.11R
MEADVILLE      NOT AVBL
FRANKLIN*      CLEAR     32  12  43 W7        30.10R
NEW CASTLE     FAIR      35  13  40 CALM      30.11F
BEAVER COUNTY  NOT AVBL
BUTLER*        CLEAR     36  12  38 NW3       30.10S
PITTSBURGH INT CLEAR     38  16  40 NW8       30.09R
PITTSBURGH     CLEAR     42  18  37 NW9       30.08R
INDIANA*       CLEAR     37  18  44 NW6       30.07S
LATROBE        CLEAR     39  21  48 NW5       30.09S
WASHINGTON CO* CLEAR     39  25  56 NW5       30.12R
$$

PAZ004>006-010>012-017>019-024>028-033>037-041-042-045-046-049>053-240500-
CENTRAL PENNSYLVANIA

CITY           SKY/WX    TMP DP  RH WIND       PRES   REMARKS
BRADFORD       CLEAR     32  22  66 NW5       30.01R
DUBOIS         CLEAR     35  22  58 W10       30.02R
CLEARFIELD     CLEAR     37  24  59 SW5       30.02R
JOHNSTOWN      CLEAR     35  15  44 NW17      30.01S
ALTOONA        CLEAR     40  24  53 NW10      30.02R
STATE COLLEGE  CLEAR     41  21  45 W7        30.00S
WILLIAMSPORT   CLEAR     43  22  43 NW9       29.98R
SELINSGROVE    CLEAR     36  31  82 CALM      29.98R
FT INDIANTOWN  CLEAR     46  26  46 VRB5      29.95R
CAPITAL CITY   CLEAR     46  27  47 W10       29.97R
HARRISBURG     CLEAR     46  28  49 NW14      29.95S
YORK           CLEAR     43  28  55 W9        29.96S
$$

PAZ038>040-043-044-047-048-054-055-060>062-067>071-240500-
EASTERN PENNSYLVANIA

CITY           SKY/WX    TMP DP  RH WIND       PRES   REMARKS
SCRANTON       CLEAR     40  25  55 W12G18    29.91R
MOUNT POCONO   CLEAR     36  24  62 NW21G29   29.84R
ALLENTOWN      CLEAR     43  24  47 NW7       29.91S
QUAKERTOWN*    CLEAR     41  25  52 W5        29.92S
READING        CLEAR     42  28  57 VRB6      29.94R
LANCASTER      CLEAR     40  29  64 W10       29.94R
COATESVILLE    NOT AVBL
POTTSTOWN      CLEAR     42  28  57 NW7       29.95R
BLUE BELL      CLEAR     45  27  49 NW3       29.92R
DOYLESTOWN     CLEAR     42  25  50 NW10      29.89S
WILLOW GROVE   NOT AVBL
NORTH PHILA    CLEAR     46  23  40 NW10      29.93R
PHILADELPHIA   CLEAR     47  24  40 NW17G24   29.95R
$$



USA.gov is the U.S. government's official web portal to all federal, state and local government web resources and services.